Regional Weather Roundup
Issued by NWS

Home | Current Version | Previous Version | Graphics & Text | Print | Product List | Glossary On
Versions: 1 2 3 4 5 6 7 8 9 10 11 12 13 14 15 16 17 18 19 20 21 22 23 24 25 26 27 28 29 30 31 32 33 34 35 36 37 38 39 40 41 42 43 44 45 46 47 48 49 50
000
ASUS43 KBIS 281002
RWRND

NORTH DAKOTA REGIONAL WEATHER ROUNDUP
NATIONAL WEATHER SERVICE BISMARCK ND
500 AM CDT THU APR 28 2016

NOTE: "FAIR" INDICATES FEW OR NO CLOUDS BELOW 12,000 FEET WITH NO
SIGNIFICANT WEATHER AND/OR OBSTRUCTIONS TO VISIBILITY.


NDZ001>003-009>011-017-281100-
NORTHWEST NORTH DAKOTA

CITY           SKY/WX    TMP DP  RH WIND       PRES   REMARKS
WILLISTON      CLOUDY    39  25  57 N8        30.09R
MINOT          CLOUDY    39  24  55 N7        30.08R
MINOT AFB      CLOUDY    38  23  55 N8        30.08R
$$

NDZ018>021-031>035-040>046-281100-
SOUTHWEST NORTH DAKOTA

CITY           SKY/WX    TMP DP  RH WIND       PRES   REMARKS
BISMARCK       CLOUDY    38  36  92 SE13      30.03R
DICKINSON      CLOUDY    34  29  82 W3        30.00R
GARRISON         N/A     38  26  62 NE7       30.04R
HETTINGER ARPT CLOUDY    34  31  88 N13       30.01S
$$

NDZ004>008-012>016-024-026-027-054-281100-
NORTHEAST NORTH DAKOTA

CITY           SKY/WX    TMP DP  RH WIND       PRES   REMARKS
GRAND FORKS    CLOUDY    40  23  50 NE8       30.06R
GRND FRKS AFB  CLOUDY    35  24  63 N6        30.07R
DEVILS LAKE    CLOUDY    39  21  48 NE13      30.07R
$$

NDZ022-023-025-028>030-036>039-047>053-281100-
SOUTHEAST NORTH DAKOTA

CITY           SKY/WX    TMP DP  RH WIND       PRES   REMARKS
FARGO          CLOUDY    44  25  47 NE14      29.99S
JAMESTOWN      CLOUDY    39  32  76 E8        30.01R
$$





USA.gov is the U.S. government's official web portal to all federal, state and local government web resources and services.